KC3JUG-3 Weather Reports


time (UTC)temp
F
wind
direction
speed
knots
gust
knots
rain 1hr
in
rain 24hr
in
rain mn
in
humidity
%
barometer
mb
20260507021049 58 258 0.9 2.6 0.03 0.22 0.22 93 1011.4
20260507020547 58 257 0.9 2.6 0.02 0.21 0.21 94 1011.4
20260507020100 58 257 0.9 3.5 0.02 0.21 0.21 93 1011.4
20260507015546 58 256 1.7 3.5 0.02 0.21 0.21 93 1011.4
20260507015050 58 269 1.7 3.5 0.02 0.21 0.21 93 1011.6
20260507014557 59 257 1.7 2.6 0.02 0.21 0.21 93 1011.4
20260507014046 59 260 0.9 2.6 0.02 0.21 0.21 94 1011.4
20260507013549 59 260 0.9 2.6 0.03 0.21 0.21 94 1011.6
20260507013053 59 260 0.9 5.2 0.03 0.21 0.21 93 1011.6
20260507012548 59 260 0.9 5.2 0.03 0.20 0.20 93 1011.5
20260507012046 59 260 1.7 5.2 0.03 0.20 0.20 93 1011.5
20260507011558 60 263 1.7 5.2 0.03 0.20 0.20 93 1011.3
20260507011045 60 257 1.7 5.2 0.02 0.19 0.19 93 1011.3
20260507010546 61 253 1.7 7.8 0.02 0.19 0.19 93 1011.2
20260507010054 62 250 2.6 7.8 0.02 0.19 0.19 94 1011.1
20260507005546 62 273 1.7 4.3 0.02 0.19 0.19 95 1010.8
20260507005046 62 252 1.7 3.5 0.02 0.19 0.19 95 1010.8
20260507004551 62 260 0.9 2.6 0.02 0.19 0.19 94 1010.7
20260507004047 63 260 1.7 2.6 0.02 0.19 0.19 94 1010.9
20260507003549 63 260 1.7 3.5 0.01 0.18 0.18 93 1010.7
20260507003101 63 260 0.9 5.2 0.01 0.18 0.18 93 1010.6
20260507002549 63 244 1.7 5.2 0.00 0.17 0.17 92 1010.4
20260507002048 64 248 0.9 2.6 0.00 0.17 0.17 91 1010.1
20260507001556 64 248 0.9 2.6 0.00 0.17 0.17 91 1010.0
20260507001050 64 248 0.9 2.6 0.00 0.17 0.17 91 1009.9
20260507000546 64 255 0.9 2.6 0.00 0.17 0.17 90 1009.9
20260507000054 64 255 0.0 2.6 0.00 0.17 0.17 90 1009.7
20260506235546 64 255 0.9 2.6 0.00 0.17 0.17 90 1009.8
20260506235046 64 255 0.9 2.6 0.00 0.17 0.17 90 1009.7
20260506234604 64 255 0.9 2.6 0.00 0.17 0.17 90 1009.8
20260506234045 64 255 0.9 2.6 0.00 0.17 0.17 89 1009.7
20260506233547 64 0 0.9 5.2 0.00 0.17 0.17 89 1009.7
20260506233055 64 259 0.9 5.2 0.00 0.17 0.17 89 1009.8
20260506232546 64 253 1.7 5.2 0.00 0.17 0.17 89 1009.7
20260506232048 64 256 1.7 5.2 0.00 0.17 0.17 89 1009.6
20260506231554 64 251 0.9 3.5 0.00 0.17 0.17 89 1009.7
20260506231047 64 250 1.7 5.2 0.00 0.17 0.17 89 1009.7
20260506230547 65 254 1.7 5.2 0.00 0.17 0.17 89 1009.7
20260506230050 65 256 0.9 3.5 0.00 0.17 0.17 89 1009.6
20260506225547 65 256 0.9 3.5 0.00 0.17 0.17 89 1009.6
20260506225046 65 251 0.9 3.5 0.00 0.17 0.17 88 1009.5
20260506224554 65 249 0.9 3.5 0.00 0.17 0.17 88 1009.6
20260506224045 65 247 0.9 6.1 0.00 0.17 0.17 88 1009.7
20260506223545 65 254 1.7 6.1 0.00 0.17 0.17 88 1009.8
20260506223053 65 235 1.7 4.3 0.00 0.17 0.17 88 1009.7
20260506222547 65 256 0.9 7.0 0.00 0.17 0.17 88 1009.6
20260506222047 65 253 1.7 7.0 0.00 0.17 0.17 88 1009.3
20260506221551 65 250 0.9 3.5 0.00 0.17 0.17 88 1009.4
20260506221050 65 215 0.9 7.0 0.00 0.17 0.17 88 1009.4
20260506220547 65 269 2.6 7.0 0.00 0.17 0.17 87 1009.5
20260506220053 65 252 1.7 6.1 0.00 0.17 0.17 87 1009.4
20260506215546 65 246 2.6 6.1 0.00 0.17 0.17 87 1009.5
20260506215048 65 254 1.7 6.1 0.00 0.17 0.17 87 1009.5
20260506214551 65 268 2.6 6.1 0.00 0.17 0.17 87 1009.5
20260506214045 65 225 1.7 5.2 0.00 0.17 0.17 87 1009.0
20260506213548 65 258 0.9 5.2 0.00 0.17 0.17 87 1009.2
20260506213055 65 256 1.7 5.2 0.00 0.17 0.17 88 1009.2
20260506212546 65 264 2.6 6.1 0.00 0.17 0.17 88 1009.2
20260506212046 65 257 1.7 6.1 0.00 0.17 0.17 88 1009.0
20260506211553 65 225 1.7 6.1 0.00 0.17 0.17 88 1008.9
20260506211048 65 264 2.6 6.1 0.00 0.17 0.17 88 1008.9
20260506210546 65 273 1.7 7.0 0.00 0.17 0.17 88 1008.8
20260506210050 64 214 2.6 7.0 0.00 0.17 0.17 88 1008.8
20260506205546 64 217 2.6 9.6 0.00 0.17 0.17 89 1008.9
20260506205047 64 267 2.6 9.6 0.00 0.17 0.17 89 1008.8
20260506204549 64 258 2.6 9.6 0.00 0.17 0.17 89 1008.7
20260506204046 64 238 1.7 6.1 0.00 0.17 0.17 89 1008.9
20260506203546 64 252 1.7 6.1 0.00 0.17 0.17 89 1008.8
20260506203047 64 236 3.5 7.8 0.00 0.17 0.17 89 1008.8
20260506202548 64 241 1.7 7.8 0.00 0.17 0.17 89 1008.9
20260506202046 64 252 3.5 7.8 0.00 0.17 0.17 88 1008.8
20260506201556 64 246 3.5 7.8 0.00 0.17 0.17 89 1008.7
20260506201046 64 284 1.7 7.8 0.00 0.17 0.17 89 1008.7
20260506200546 64 227 2.6 12.2 0.00 0.17 0.17 89 1008.8
20260506200052 64 265 4.3 12.2 0.00 0.17 0.17 88 1008.8
20260506195546 64 248 2.6 7.8 0.00 0.17 0.17 89 1008.8
20260506195047 64 202 2.6 7.8 0.00 0.17 0.17 89 1008.9
20260506194552 64 269 2.6 7.8 0.00 0.17 0.17 90 1008.8
20260506194048 64 266 3.5 8.7 0.00 0.17 0.17 91 1009.0
20260506193550 63 205 2.6 8.7 0.00 0.17 0.17 92 1009.0
20260506193050 63 231 3.5 9.6 0.00 0.17 0.17 92 1009.1
20260506192546 63 238 2.6 9.6 0.00 0.17 0.17 93 1009.0
20260506192048 63 217 2.6 7.0 0.00 0.17 0.17 94 1009.1
20260506191555 62 244 1.7 6.1 0.00 0.17 0.17 94 1009.0
20260506191046 62 266 1.7 6.1 0.00 0.17 0.17 94 1009.1
20260506190545 62 214 2.6 6.1 0.00 0.17 0.17 95 1009.1
20260506190055 61 271 2.6 7.0 0.00 0.17 0.17 96 1009.1
20260506185545 61 246 1.7 7.8 0.00 0.17 0.17 96 1009.1
20260506185045 61 280 2.6 7.8 0.00 0.17 0.17 97 1009.1
20260506184557 60 299 1.7 7.0 0.00 0.17 0.17 97 1009.3
20260506184045 60 217 2.6 7.0 0.00 0.17 0.17 97 1009.3
20260506183549 60 268 1.7 8.7 0.00 0.17 0.17 97 1009.4
20260506183052 59 212 3.5 8.7 0.00 0.17 0.17 96 1009.4
20260506182547 59 206 1.7 6.1 0.00 0.17 0.17 96 1009.6
20260506182047 59 205 2.6 6.1 0.00 0.17 0.17 97 1009.6
20260506181549 59 227 1.7 7.0 0.00 0.17 0.17 96 1009.7
20260506181047 59 196 2.6 8.7 0.00 0.17 0.17 96 1009.7
20260506180547 59 209 3.5 8.7 0.00 0.17 0.17 96 1009.8
20260506180049 59 192 2.6 6.1 0.00 0.17 0.17 96 1010.0
20260506175547 59 209 1.7 8.7 0.00 0.17 0.17 96 1009.9
20260506175045 59 194 2.6 8.7 0.00 0.17 0.17 96 1009.9
20260506174548 59 212 2.6 7.8 0.00 0.17 0.17 96 1009.8
20260506174046 59 200 2.6 8.7 0.00 0.17 0.17 96 1009.7
20260506173546 59 236 3.5 8.7 0.00 0.17 0.17 96 1009.8
20260506173124 59 201 3.5 8.7 0.00 0.17 0.17 96 1009.6
20260506172545 59 246 2.6 6.1 0.00 0.17 0.17 96 1009.6
20260506172047 59 220 2.6 7.0 0.01 0.17 0.17 96 1009.6
20260506171545 58 211 2.6 7.8 0.01 0.17 0.17 96 1009.6
20260506171045 58 191 2.6 7.8 0.01 0.17 0.17 96 1009.7
20260506170546 58 212 2.6 7.0 0.01 0.17 0.17 96 1009.7
20260506170056 58 205 2.6 10.4 0.01 0.17 0.17 96 1009.8
20260506165545 58 222 2.6 10.4 0.02 0.17 0.17 96 1009.9
20260506165047 58 225 2.6 7.0 0.02 0.17 0.17 96 1010.0
20260506164559 58 192 1.7 6.1 0.02 0.17 0.17 96 1009.9
20260506164045 59 208 2.6 7.0 0.02 0.17 0.17 95 1010.1
20260506163545 59 254 2.6 7.0 0.02 0.17 0.17 95 1010.0
20260506163104 59 217 2.6 6.1 0.03 0.17 0.17 96 1010.1
20260506162545 59 217 2.6 6.1 0.03 0.17 0.17 96 1009.8
20260506162047 59 198 2.6 6.1 0.03 0.16 0.16 96 1009.8
20260506161626 59 202 1.7 6.1 0.03 0.16 0.16 96 1009.8
20260506161045 59 203 2.6 5.2 0.04 0.16 0.16 96 1009.6
20260506160545 59 191 1.7 6.1 0.05 0.16 0.16 96 1009.6
20260506160103 58 198 2.6 6.1 0.07 0.16 0.16 95 1009.5
20260506155545 59 194 2.6 6.1 0.07 0.15 0.15 95 1009.6
20260506155045 59 191 1.7 5.2 0.08 0.15 0.15 95 1009.9
20260506154600 59 209 2.6 6.1 0.09 0.15 0.15 95 1010.4
20260506154046 59 187 2.6 6.1 0.10 0.15 0.15 95 1010.7
20260506153546 59 206 2.6 4.3 0.10 0.15 0.15 95 1010.7
20260506153058 59 251 1.7 5.2 0.10 0.14 0.14 95 1010.8
20260506152546 59 202 2.6 6.1 0.10 0.14 0.14 95 1010.8
20260506152046 59 196 2.6 6.1 0.09 0.13 0.13 95 1010.9
20260506151558 59 204 2.6 6.1 0.10 0.13 0.13 95 1011.0
20260506151045 59 200 2.6 5.2 0.09 0.12 0.12 95 1011.1
20260506150551 59 200 1.7 4.3 0.09 0.11 0.11 95 1011.1
20260506150057 59 188 1.7 6.1 0.07 0.09 0.09 94 1011.1
20260506145546 59 205 1.7 6.1 0.06 0.07 0.07 94 1010.9
20260506145048 59 191 1.7 4.3 0.06 0.07 0.07 94 1010.7
20260506144549 59 188 1.7 5.2 0.05 0.06 0.06 94 1010.9
20260506144045 59 242 2.6 5.2 0.05 0.05 0.05 94 1010.9
20260506143545 59 184 1.7 5.2 0.05 0.05 0.05 94 1010.8
20260506143051 59 229 1.7 4.3 0.04 0.04 0.04 94 1010.8
20260506142545 59 232 1.7 4.3 0.04 0.04 0.04 94 1010.8
20260506142045 59 190 0.9 3.5 0.04 0.04 0.04 94 1010.9
20260506141555 59 246 0.9 3.5 0.03 0.03 0.03 93 1010.9
20260506141046 59 198 1.7 3.5 0.03 0.03 0.03 93 1010.8
20260506140546 59 200 0.9 4.3 0.02 0.02 0.02 92 1010.8
20260506140055 59 200 1.7 5.2 0.02 0.02 0.02 92 1010.8
20260506135546 60 202 2.6 5.2 0.01 0.01 0.01 92 1010.9
20260506135045 60 202 1.7 4.3 0.01 0.01 0.01 92 1010.8
20260506134553 60 202 1.7 4.3 0.00 0.00 0.00 91 1010.8
20260506134045 60 200 1.7 5.2 0.00 0.00 0.00 91 1010.9
20260506133545 60 198 2.6 5.2 0.00 0.00 0.00 91 1010.8
20260506133051 60 202 1.7 4.3 0.00 0.00 0.00 91 1010.9
20260506132545 60 202 1.7 4.3 0.00 0.00 0.00 91 1010.7
20260506132045 60 203 2.6 4.3 0.00 0.00 0.00 90 1010.8
20260506131557 60 200 1.7 4.3 0.00 0.00 0.00 90 1010.9
20260506131045 60 208 1.7 4.3 0.00 0.00 0.00 90 1011.1
20260506130545 60 202 1.7 4.3 0.00 0.00 0.00 90 1011.0
20260506130121 60 194 1.7 5.2 0.00 0.00 0.00 89 1011.1
20260506125545 60 217 2.6 5.2 0.00 0.00 0.00 89 1011.1
20260506125045 60 185 1.7 4.3 0.00 0.00 0.00 89 1011.1
20260506124557 60 211 1.7 4.3 0.00 0.00 0.00 89 1011.2
20260506124045 60 248 1.7 5.2 0.00 0.00 0.00 89 1011.2
20260506123545 61 205 1.7 5.2 0.00 0.00 0.00 88 1011.3
20260506123054 61 205 2.6 7.0 0.00 0.00 0.00 87 1011.3
20260506122548 61 222 2.6 7.0 0.00 0.00 0.00 87 1011.1
20260506122045 61 263 2.6 6.1 0.00 0.00 0.00 87 1011.0
20260506121553 61 258 2.6 6.1 0.00 0.00 0.00 86 1011.1
20260506121045 61 202 3.5 6.1 0.00 0.00 0.00 85 1011.0
20260506120547 62 196 2.6 5.2 0.00 0.00 0.00 84 1011.0
20260506120050 62 204 2.6 6.1 0.00 0.00 0.00 83 1010.8
20260506115544 62 203 2.6 10.4 0.00 0.00 0.00 83 1010.7
20260506115045 62 201 2.6 10.4 0.00 0.00 0.00 83 1010.7
20260506114551 62 198 3.5 7.0 0.00 0.00 0.00 83 1010.6
20260506114046 62 235 2.6 8.7 0.00 0.00 0.00 83 1010.7
20260506113545 62 238 3.5 8.7 0.00 0.00 0.00 83 1010.7
20260506113058 62 202 3.5 8.7 0.00 0.00 0.00 82 1010.6
20260506112546 62 205 2.6 6.1 0.00 0.00 0.00 83 1010.4
20260506112045 62 196 2.6 6.1 0.00 0.00 0.00 82 1010.5
20260506111549 62 196 3.5 6.1 0.00 0.00 0.00 82 1010.4
20260506111048 62 173 2.6 7.8 0.00 0.00 0.00 83 1010.3
20260506110548 62 201 2.6 7.8 0.00 0.00 0.00 82 1010.3
20260506110057 62 192 3.5 7.8 0.00 0.00 0.00 82 1010.3
20260506105548 62 213 2.6 4.3 0.00 0.00 0.00 82 1010.3
20260506105050 62 215 2.6 7.0 0.00 0.00 0.00 82 1010.5
20260506104552 62 192 2.6 7.0 0.00 0.00 0.00 82 1010.4
20260506104048 62 201 2.6 6.1 0.00 0.00 0.00 82 1010.3
20260506103548 62 212 2.6 7.0 0.00 0.00 0.00 82 1010.2
20260506103056 62 187 2.6 7.0 0.00 0.00 0.00 82 1010.1
20260506102548 62 188 2.6 7.0 0.00 0.00 0.00 82 1010.2
20260506102047 62 204 3.5 7.0 0.00 0.00 0.00 81 1010.1
20260506101557 62 182 2.6 7.0 0.00 0.00 0.00 81 1010.1
20260506101047 63 188 2.6 7.0 0.00 0.00 0.00 81 1010.1
20260506100547 63 202 3.5 7.0 0.00 0.00 0.00 81 1010.1
20260506100104 63 204 3.5 6.1 0.00 0.00 0.00 81 1010.0
20260506095547 63 205 3.5 7.0 0.00 0.00 0.00 80 1009.9
20260506095050 63 208 2.6 7.0 0.00 0.00 0.00 80 1010.1
20260506094550 63 199 2.6 7.0 0.00 0.00 0.00 80 1010.1
20260506094049 63 200 3.5 6.1 0.00 0.00 0.00 80 1010.1
20260506093551 63 167 2.6 7.0 0.00 0.00 0.00 80 1010.0
20260506093049 63 200 2.6 7.0 0.00 0.00 0.00 80 1010.1
20260506092548 63 200 2.6 7.0 0.00 0.00 0.00 79 1010.1
20260506092048 63 205 2.6 7.0 0.00 0.00 0.00 79 1010.0
20260506091553 64 198 3.5 6.1 0.00 0.00 0.00 79 1010.2
20260506091047 64 194 2.6 7.8 0.00 0.00 0.00 78 1010.0
20260506090652 64 196 2.6 7.8 0.00 0.00 0.00 78 1010.1
20260506090052 64 198 2.6 6.1 0.00 0.00 0.00 78 1010.2
20260506085547 64 200 2.6 6.1 0.00 0.00 0.00 78 1010.2
20260506085049 64 190 2.6 6.1 0.00 0.00 0.00 78 1010.3
20260506084617 64 195 2.6 6.1 0.00 0.00 0.00 77 1010.3
20260506084047 64 200 2.6 6.1 0.00 0.00 0.00 77 1010.3
20260506083547 64 202 2.6 5.2 0.00 0.00 0.00 76 1010.2
20260506083048 64 196 2.6 7.0 0.00 0.00 0.00 76 1010.3
20260506082546 64 196 2.6 7.0 0.00 0.00 0.00 76 1010.3
20260506082047 64 194 2.6 5.2 0.00 0.00 0.00 76 1010.3
20260506081554 65 194 1.7 5.2 0.00 0.00 0.00 75 1010.4
20260506081047 65 194 1.7 5.2 0.00 0.00 0.00 75 1010.4
20260506080548 65 192 2.6 4.3 0.00 0.00 0.00 75 1010.3
20260506073051 65 198 1.7 5.2 0.00 0.00 0.00 73 1010.5
20260506072547 65 206 1.7 6.1 0.00 0.00 0.00 73 1010.5
20260506072047 65 202 1.7 6.1 0.00 0.00 0.00 72 1010.6
20260506071550 65 198 2.6 5.2 0.00 0.00 0.00 72 1010.6
20260506071048 65 199 2.6 4.3 0.00 0.00 0.00 72 1010.8
20260506070548 65 199 1.7 4.3 0.00 0.00 0.00 71 1010.8
20260506062047 66 202 2.6 4.3 0.00 0.00 0.00 68 1011.4
20260506061551 66 192 1.7 4.3 0.00 0.00 0.00 68 1011.4
20260506061047 66 197 1.7 5.2 0.00 0.00 0.00 68 1011.6
20260506060547 66 197 1.7 5.2 0.00 0.00 0.00 68 1011.5
20260506051046 66 215 1.7 5.2 0.00 0.00 0.00 66 1011.6
20260506050547 66 209 1.7 5.2 0.00 0.00 0.00 66 1011.7
20260506045047 66 209 1.7 6.1 0.00 0.00 0.00 66 1011.8
20260506044653 66 214 1.7 6.1 0.00 0.00 0.00 65 1011.7
20260506044051 66 232 2.6 6.1 0.00 0.00 0.00 65 1011.8
20260506043548 66 222 1.7 6.1 0.00 0.00 0.00 65 1011.8
20260506043047 66 207 2.6 6.1 0.00 0.00 0.00 65 1011.9
20260506042548 66 208 1.7 4.3 0.00 0.00 0.00 65 1011.8
20260506042047 66 210 1.7 4.3 0.00 0.00 0.00 65 1011.9
20260506041559 66 212 1.7 4.3 0.00 0.00 0.00 65 1011.8
20260506041047 66 200 1.7 4.3 0.00 0.00 0.00 65 1011.9
20260506040550 66 213 1.7 6.1 0.00 0.00 0.00 65 1011.9
20260506040050 66 245 1.7 6.1 0.00 0.00 0.00 65 1011.9
20260506035547 66 221 2.6 5.2 0.00 0.00 0.00 65 1011.9
20260506035047 66 223 1.7 4.3 0.00 0.00 0.00 65 1011.9
20260506034625 66 240 1.7 6.1 0.00 0.00 0.00 65 1011.7
20260506034047 66 202 1.7 6.1 0.00 0.00 0.00 65 1011.8
20260506033548 66 203 1.7 4.3 0.00 0.00 0.00 64 1011.7
20260506033057 66 193 1.7 4.3 0.00 0.00 0.00 65 1011.8
20260506032548 66 211 1.7 4.3 0.00 0.00 0.00 65 1011.8
20260506032047 66 209 1.7 4.3 0.00 0.00 0.00 64 1011.7
20260506031552 67 200 1.7 3.5 0.00 0.00 0.00 64 1011.7
20260506031047 67 207 1.7 3.5 0.00 0.00 0.00 63 1011.7
20260506030547 67 219 0.9 3.5 0.00 0.00 0.00 63 1011.7
20260506030048 67 235 1.7 3.5 0.00 0.00 0.00 63 1011.7
20260506025547 67 242 1.7 3.5 0.00 0.00 0.00 63 1011.7
20260506025050 67 242 0.9 3.5 0.00 0.00 0.00 62 1011.7
20260506024548 67 244 0.9 3.5 0.00 0.00 0.00 62 1011.7
20260506024047 67 212 1.7 3.5 0.00 0.00 0.00 62 1011.8
20260506023547 67 212 1.7 3.5 0.00 0.00 0.00 62 1011.8
20260506023106 68 207 1.7 3.5 0.00 0.00 0.00 61 1011.8
20260506022547 68 207 1.7 4.3 0.00 0.00 0.00 62 1011.8
20260506022048 68 207 1.7 4.3 0.00 0.00 0.00 61 1011.7
20260506021549 68 207 1.7 4.3 0.00 0.00 0.00 61 1011.9